contact:dominique.lefevre@mio.osupytheas.fr, maurice.libes@osupytheas.fr, didier.mallarino@osupytheas.fr
Project:EMSO http://www.emso-fr.org/EMSO-France
Depth: 2436.0 m
Title:EMSO Ligure Ouest : Data MII capteur MICROCAT
DateTime_Computer,Latitude,Longitude,Temperature,Conductivity,Pressure,DateTime_Instrument
DateTime_Computer,Latitude,Longitude,degC,S m-1,dbar,DateTime_Instrument
2023-11-13T00:02:40Z,42.805,6.029,13.3045,4.60123,2470.693,2023-11-13T02:05:07Z
2023-11-13T00:05:43Z,42.805,6.029,13.3051,4.60122,2470.67,2023-11-13T02:08:10Z
2023-11-13T00:08:46Z,42.805,6.029,13.3046,4.60121,2470.67,2023-11-13T02:11:13Z
2023-11-13T00:11:49Z,42.805,6.029,13.3046,4.60119,2470.684,2023-11-13T02:14:16Z
2023-11-13T00:14:52Z,42.805,6.029,13.3050,4.60120,2470.67,2023-11-13T02:17:19Z
2023-11-13T00:17:55Z,42.805,6.029,13.3044,4.60120,2470.646,2023-11-13T02:20:22Z
2023-11-13T00:20:58Z,42.805,6.029,13.3048,4.60122,2470.646,2023-11-13T02:23:25Z
2023-11-13T00:24:02Z,42.805,6.029,13.3043,4.60119,2470.684,2023-11-13T02:26:29Z
2023-11-13T00:27:05Z,42.805,6.029,13.3047,4.60120,2470.67,2023-11-13T02:29:32Z
2023-11-13T00:30:08Z,42.805,6.029,13.3048,4.60122,2470.661,2023-11-13T02:32:35Z
2023-11-13T00:33:11Z,42.805,6.029,13.3046,4.60121,2470.646,2023-11-13T02:35:38Z
2023-11-13T00:36:14Z,42.805,6.029,13.3048,4.60121,2470.637,2023-11-13T02:38:41Z
2023-11-13T00:39:17Z,42.805,6.029,13.3047,4.60120,2470.624,2023-11-13T02:41:44Z
2023-11-13T00:42:20Z,42.805,6.029,13.3051,4.60119,2470.67,2023-11-13T02:44:47Z
2023-11-13T00:45:23Z,42.805,6.029,13.3044,4.60121,2470.637,2023-11-13T02:47:50Z
2023-11-13T00:48:26Z,42.805,6.029,13.3046,4.60120,2470.624,2023-11-13T02:50:53Z
2023-11-13T00:51:29Z,42.805,6.029,13.3043,4.60122,2470.646,2023-11-13T02:53:56Z
2023-11-13T00:54:32Z,42.805,6.029,13.3046,4.60119,2470.661,2023-11-13T02:56:59Z
2023-11-13T00:57:36Z,42.805,6.029,13.3048,4.60120,2470.646,2023-11-13T03:00:03Z
2023-11-13T01:00:39Z,42.805,6.029,13.3046,4.60122,2470.624,2023-11-13T03:03:06Z
2023-11-13T01:03:42Z,42.805,6.029,13.3045,4.60121,2470.646,2023-11-13T03:06:09Z
2023-11-13T01:06:45Z,42.805,6.029,13.3048,4.60120,2470.624,2023-11-13T03:09:12Z
2023-11-13T01:09:48Z,42.805,6.029,13.3048,4.60119,2470.67,2023-11-13T03:12:15Z
2023-11-13T01:12:51Z,42.805,6.029,13.3051,4.60119,2470.637,2023-11-13T03:15:18Z
2023-11-13T01:15:54Z,42.805,6.029,13.3047,4.60122,2470.661,2023-11-13T03:18:21Z
2023-11-13T01:18:57Z,42.805,6.029,13.3046,4.60118,2470.661,2023-11-13T03:21:24Z
2023-11-13T01:22:00Z,42.805,6.029,13.3048,4.60119,2470.646,2023-11-13T03:24:27Z
2023-11-13T01:25:03Z,42.805,6.029,13.3046,4.60119,2470.624,2023-11-13T03:27:30Z
2023-11-13T01:28:06Z,42.805,6.029,13.3046,4.60121,2470.646,2023-11-13T03:30:33Z
2023-11-13T01:31:09Z,42.805,6.029,13.3051,4.60118,2470.646,2023-11-13T03:33:36Z
2023-11-13T01:34:13Z,42.805,6.029,13.3047,4.60119,2470.67,2023-11-13T03:36:39Z
2023-11-13T01:37:16Z,42.805,6.029,13.3046,4.60119,2470.646,2023-11-13T03:39:43Z
2023-11-13T01:40:19Z,42.805,6.029,13.3046,4.60124,2470.646,2023-11-13T03:42:46Z
2023-11-13T01:43:22Z,42.805,6.029,13.3048,4.60118,2470.646,2023-11-13T03:45:49Z
2023-11-13T01:46:25Z,42.805,6.029,13.3046,4.60119,2470.67,2023-11-13T03:48:52Z
2023-11-13T01:49:28Z,42.805,6.029,13.3045,4.60118,2470.67,2023-11-13T03:51:55Z
2023-11-13T01:52:31Z,42.805,6.029,13.3046,4.60119,2470.646,2023-11-13T03:54:58Z
2023-11-13T01:55:34Z,42.805,6.029,13.3048,4.60119,2470.661,2023-11-13T03:58:01Z
2023-11-13T01:58:37Z,42.805,6.029,13.3048,4.60119,2470.646,2023-11-13T04:01:04Z
2023-11-13T02:01:40Z,42.805,6.029,13.3046,4.60119,2470.661,2023-11-13T04:04:07Z
2023-11-13T02:04:43Z,42.805,6.029,13.3046,4.60117,2470.624,2023-11-13T04:07:10Z
2023-11-13T02:07:46Z,42.805,6.029,13.3050,4.60121,2470.67,2023-11-13T04:10:13Z
2023-11-13T02:10:49Z,42.805,6.029,13.3041,4.60122,2470.684,2023-11-13T04:13:16Z
2023-11-13T02:13:53Z,42.805,6.029,13.3049,4.60117,2470.624,2023-11-13T04:16:20Z
2023-11-13T02:16:56Z,42.805,6.029,13.3043,4.60117,2470.693,2023-11-13T04:19:23Z
2023-11-13T02:19:59Z,42.805,6.029,13.3046,4.60123,2470.646,2023-11-13T04:22:26Z
2023-11-13T02:23:02Z,42.805,6.029,13.3051,4.60119,2470.661,2023-11-13T04:25:29Z
2023-11-13T02:26:05Z,42.805,6.029,13.3047,4.60125,2470.67,2023-11-13T04:28:32Z
2023-11-13T02:29:08Z,42.805,6.029,13.3048,4.60119,2470.67,2023-11-13T04:31:35Z
2023-11-13T02:32:11Z,42.805,6.029,13.3046,4.60119,2470.646,2023-11-13T04:34:38Z
2023-11-13T02:35:14Z,42.805,6.029,13.3048,4.60117,2470.693,2023-11-13T04:37:41Z
2023-11-13T02:38:17Z,42.805,6.029,13.3043,4.60117,2470.67,2023-11-13T04:40:44Z
2023-11-13T02:41:20Z,42.805,6.029,13.3048,4.60119,2470.67,2023-11-13T04:43:47Z
2023-11-13T02:44:23Z,42.805,6.029,13.3045,4.60125,2470.707,2023-11-13T04:46:50Z
2023-11-13T02:47:27Z,42.805,6.029,13.3043,4.60128,2470.684,2023-11-13T04:49:54Z
2023-11-13T02:50:30Z,42.805,6.029,13.3042,4.60119,2470.67,2023-11-13T04:52:57Z
2023-11-13T02:53:33Z,42.805,6.029,13.3050,4.60117,2470.684,2023-11-13T04:56:00Z
2023-11-13T02:56:36Z,42.805,6.029,13.3049,4.60117,2470.67,2023-11-13T04:59:03Z
2023-11-13T02:59:39Z,42.805,6.029,13.3043,4.60119,2470.684,2023-11-13T05:02:06Z
2023-11-13T03:02:42Z,42.805,6.029,13.3044,4.60117,2470.693,2023-11-13T05:05:09Z
2023-11-13T03:05:45Z,42.805,6.029,13.3050,4.60119,2470.67,2023-11-13T05:08:12Z
2023-11-13T03:08:48Z,42.805,6.029,13.3043,4.60119,2470.693,2023-11-13T05:11:15Z
2023-11-13T03:11:51Z,42.805,6.029,13.3041,4.60120,2470.707,2023-11-13T05:14:18Z
2023-11-13T03:14:54Z,42.805,6.029,13.3048,4.60124,2470.684,2023-11-13T05:17:21Z
2023-11-13T03:17:57Z,42.805,6.029,13.3048,4.60135,2470.707,2023-11-13T05:20:24Z
2023-11-13T03:21:00Z,42.805,6.029,13.3047,4.60122,2470.67,2023-11-13T05:23:27Z
2023-11-13T03:24:04Z,42.805,6.029,13.3045,4.60133,2470.717,2023-11-13T05:26:31Z
2023-11-13T03:27:07Z,42.805,6.029,13.3045,4.60121,2470.717,2023-11-13T05:29:34Z
2023-11-13T03:30:10Z,42.805,6.029,13.3045,4.60122,2470.74,2023-11-13T05:32:37Z
2023-11-13T03:33:13Z,42.805,6.029,13.3046,4.60137,2470.693,2023-11-13T05:35:40Z
2023-11-13T03:36:16Z,42.805,6.029,13.3041,4.60125,2470.754,2023-11-13T05:38:43Z
2023-11-13T03:39:19Z,42.805,6.029,13.3047,4.60121,2470.73,2023-11-13T05:41:46Z
2023-11-13T03:42:22Z,42.805,6.029,13.3047,4.60125,2470.74,2023-11-13T05:44:49Z
2023-11-13T03:45:25Z,42.805,6.029,13.3043,4.60123,2470.754,2023-11-13T05:47:52Z
2023-11-13T03:48:28Z,42.805,6.029,13.3044,4.60132,2470.74,2023-11-13T05:50:55Z
2023-11-13T03:51:31Z,42.805,6.029,13.3050,4.60168,2470.763,2023-11-13T05:53:58Z
2023-11-13T03:54:34Z,42.805,6.029,13.3046,4.60135,2470.763,2023-11-13T05:57:01Z
2023-11-13T03:57:37Z,42.805,6.029,13.3054,4.60142,2470.777,2023-11-13T06:00:04Z
2023-11-13T04:00:41Z,42.805,6.029,13.3048,4.60133,2470.74,2023-11-13T06:03:08Z
2023-11-13T04:03:44Z,42.805,6.029,13.3046,4.60123,2470.73,2023-11-13T06:06:11Z
2023-11-13T04:06:47Z,42.805,6.029,13.3046,4.60125,2470.754,2023-11-13T06:09:14Z
2023-11-13T04:09:50Z,42.805,6.029,13.3048,4.60125,2470.74,2023-11-13T06:12:17Z
2023-11-13T04:12:53Z,42.805,6.029,13.3050,4.60130,2470.754,2023-11-13T06:15:20Z
2023-11-13T04:15:56Z,42.805,6.029,13.3054,4.60132,2470.763,2023-11-13T06:18:23Z
2023-11-13T04:18:59Z,42.805,6.029,13.3056,4.60130,2470.777,2023-11-13T06:21:26Z
2023-11-13T04:22:02Z,42.805,6.029,13.3056,4.60125,2470.8,2023-11-13T06:24:29Z
2023-11-13T04:25:05Z,42.805,6.029,13.3048,4.60128,2470.73,2023-11-13T06:27:32Z
2023-11-13T04:28:08Z,42.805,6.029,13.3051,4.60141,2470.777,2023-11-13T06:30:35Z
2023-11-13T04:31:11Z,42.805,6.029,13.3059,4.60147,2470.777,2023-11-13T06:33:38Z
2023-11-13T04:34:14Z,42.805,6.029,13.3060,4.60138,2470.8,2023-11-13T06:36:41Z
2023-11-13T04:37:18Z,42.805,6.029,13.3059,4.60166,2470.777,2023-11-13T06:39:45Z
2023-11-13T04:40:21Z,42.805,6.029,13.3063,4.60183,2470.763,2023-11-13T06:42:48Z
2023-11-13T04:43:24Z,42.805,6.029,13.3053,4.60179,2470.8,2023-11-13T06:45:51Z
2023-11-13T04:46:27Z,42.805,6.029,13.3054,4.60141,2470.787,2023-11-13T06:48:54Z
2023-11-13T04:49:30Z,42.805,6.029,13.3054,4.60144,2470.824,2023-11-13T06:51:57Z
2023-11-13T04:52:33Z,42.805,6.029,13.3053,4.60173,2470.8,2023-11-13T06:55:00Z
2023-11-13T04:55:36Z,42.805,6.029,13.3051,4.60215,2470.787,2023-11-13T06:58:03Z
2023-11-13T04:58:39Z,42.805,6.029,13.3053,4.60234,2470.81,2023-11-13T07:01:06Z
2023-11-13T05:01:42Z,42.805,6.029,13.3043,4.60240,2470.824,2023-11-13T07:04:09Z
2023-11-13T05:04:45Z,42.805,6.029,13.3053,4.60223,2470.81,2023-11-13T07:07:12Z
2023-11-13T05:07:48Z,42.805,6.029,13.3048,4.60238,2470.824,2023-11-13T07:10:15Z
2023-11-13T05:10:51Z,42.805,6.029,13.3044,4.60247,2470.8,2023-11-13T07:13:18Z
2023-11-13T05:13:55Z,42.805,6.029,13.3043,4.60215,2470.81,2023-11-13T07:16:22Z
2023-11-13T05:16:58Z,42.805,6.029,13.3049,4.60193,2470.81,2023-11-13T07:19:25Z
2023-11-13T05:20:01Z,42.805,6.029,13.3047,4.60217,2470.847,2023-11-13T07:22:28Z
2023-11-13T05:23:04Z,42.805,6.029,13.3048,4.60218,2470.833,2023-11-13T07:25:31Z
2023-11-13T05:26:07Z,42.805,6.029,13.3048,4.60205,2470.787,2023-11-13T07:28:34Z
2023-11-13T05:29:10Z,42.805,6.029,13.3058,4.60210,2470.81,2023-11-13T07:31:37Z
2023-11-13T05:32:13Z,42.805,6.029,13.3084,4.60192,2470.81,2023-11-13T07:34:40Z
2023-11-13T05:35:16Z,42.805,6.029,13.3103,4.60189,2470.8,2023-11-13T07:37:43Z
2023-11-13T05:38:19Z,42.805,6.029,13.3109,4.60181,2470.8,2023-11-13T07:40:46Z
2023-11-13T05:41:22Z,42.805,6.029,13.3101,4.60180,2470.833,2023-11-13T07:43:49Z
2023-11-13T05:44:25Z,42.805,6.029,13.3118,4.60173,2470.857,2023-11-13T07:46:52Z
2023-11-13T05:47:28Z,42.805,6.029,13.3126,4.60160,2470.81,2023-11-13T07:49:55Z
2023-11-13T05:50:32Z,42.805,6.029,13.3115,4.60160,2470.857,2023-11-13T07:52:59Z
2023-11-13T05:53:35Z,42.805,6.029,13.3103,4.60162,2470.847,2023-11-13T07:56:02Z
2023-11-13T05:56:38Z,42.805,6.029,13.3109,4.60163,2470.833,2023-11-13T07:59:05Z
2023-11-13T05:59:41Z,42.805,6.029,13.3117,4.60167,2470.847,2023-11-13T08:02:08Z
2023-11-13T06:02:44Z,42.805,6.029,13.3111,4.60155,2470.824,2023-11-13T08:05:11Z
2023-11-13T06:05:47Z,42.805,6.029,13.3125,4.60163,2470.847,2023-11-13T08:08:14Z
2023-11-13T06:08:50Z,42.805,6.029,13.3117,4.60161,2470.847,2023-11-13T08:11:17Z
2023-11-13T06:11:53Z,42.805,6.029,13.3103,4.60160,2470.857,2023-11-13T08:14:20Z
2023-11-13T06:14:56Z,42.805,6.029,13.3107,4.60159,2470.824,2023-11-13T08:17:23Z
2023-11-13T06:17:59Z,42.805,6.029,13.3110,4.60155,2470.833,2023-11-13T08:20:26Z
2023-11-13T06:21:02Z,42.805,6.029,13.3090,4.60157,2470.833,2023-11-13T08:23:29Z
2023-11-13T06:24:05Z,42.805,6.029,13.3095,4.60160,2470.894,2023-11-13T08:26:32Z
2023-11-13T06:27:09Z,42.805,6.029,13.3092,4.60158,2470.857,2023-11-13T08:29:36Z
2023-11-13T06:30:12Z,42.805,6.029,13.3089,4.60178,2470.894,2023-11-13T08:32:39Z
2023-11-13T06:33:15Z,42.805,6.029,13.3091,4.60163,2470.847,2023-11-13T08:35:42Z
2023-11-13T06:36:18Z,42.805,6.029,13.3093,4.60163,2470.847,2023-11-13T08:38:45Z
2023-11-13T06:39:21Z,42.805,6.029,13.3091,4.60170,2470.871,2023-11-13T08:41:48Z
2023-11-13T06:42:24Z,42.805,6.029,13.3093,4.60150,2470.871,2023-11-13T08:44:51Z
2023-11-13T06:45:27Z,42.805,6.029,13.3094,4.60148,2470.871,2023-11-13T08:47:54Z
2023-11-13T06:48:30Z,42.805,6.029,13.3090,4.60152,2470.847,2023-11-13T08:50:57Z
2023-11-13T06:51:33Z,42.805,6.029,13.3094,4.60147,2470.871,2023-11-13T08:54:00Z
2023-11-13T06:54:36Z,42.805,6.029,13.3084,4.60157,2470.871,2023-11-13T08:57:03Z
2023-11-13T06:57:39Z,42.805,6.029,13.3106,4.60149,2470.894,2023-11-13T09:00:06Z
2023-11-13T07:00:42Z,42.805,6.029,13.3091,4.60154,2470.88,2023-11-13T09:03:09Z
2023-11-13T07:03:46Z,42.805,6.029,13.3086,4.60148,2470.88,2023-11-13T09:06:13Z
2023-11-13T07:06:49Z,42.805,6.029,13.3140,4.60155,2470.894,2023-11-13T09:09:16Z
2023-11-13T07:09:52Z,42.805,6.029,13.3091,4.60157,2470.894,2023-11-13T09:12:19Z
2023-11-13T07:12:55Z,42.805,6.029,13.3079,4.60146,2470.894,2023-11-13T09:15:22Z
2023-11-13T07:15:58Z,42.805,6.029,13.3078,4.60156,2470.857,2023-11-13T09:18:25Z
2023-11-13T07:19:01Z,42.805,6.029,13.3089,4.60161,2470.847,2023-11-13T09:21:28Z
2023-11-13T07:22:04Z,42.805,6.029,13.3089,4.60152,2470.88,2023-11-13T09:24:31Z
2023-11-13T07:25:07Z,42.805,6.029,13.3079,4.60155,2470.871,2023-11-13T09:27:34Z
2023-11-13T07:28:10Z,42.805,6.029,13.3084,4.60154,2470.871,2023-11-13T09:30:37Z
2023-11-13T07:31:13Z,42.805,6.029,13.3056,4.60151,2470.88,2023-11-13T09:33:40Z
2023-11-13T07:34:16Z,42.805,6.029,13.3070,4.60152,2470.833,2023-11-13T09:36:43Z
2023-11-13T07:37:19Z,42.805,6.029,13.3054,4.60145,2470.857,2023-11-13T09:39:46Z
2023-11-13T07:40:23Z,42.805,6.029,13.3076,4.60154,2470.88,2023-11-13T09:42:50Z
2023-11-13T07:43:26Z,42.805,6.029,13.3106,4.60161,2470.88,2023-11-13T09:45:53Z
2023-11-13T07:46:29Z,42.805,6.029,13.3063,4.60157,2470.871,2023-11-13T09:48:56Z
2023-11-13T07:49:32Z,42.805,6.029,13.3082,4.60158,2470.871,2023-11-13T09:51:59Z
2023-11-13T07:52:35Z,42.805,6.029,13.3100,4.60150,2470.871,2023-11-13T09:55:02Z
2023-11-13T07:55:38Z,42.805,6.029,13.3078,4.60144,2470.894,2023-11-13T09:58:05Z
2023-11-13T07:58:41Z,42.805,6.029,13.3102,4.60165,2470.857,2023-11-13T10:01:08Z
2023-11-13T08:01:44Z,42.805,6.029,13.3080,4.60146,2470.871,2023-11-13T10:04:11Z
2023-11-13T08:04:47Z,42.805,6.029,13.3084,4.60157,2470.833,2023-11-13T10:07:14Z
2023-11-13T08:07:50Z,42.805,6.029,13.3058,4.60153,2470.894,2023-11-13T10:10:17Z
2023-11-13T08:10:53Z,42.805,6.029,13.3063,4.60176,2470.871,2023-11-13T10:13:20Z
2023-11-13T08:13:56Z,42.805,6.029,13.3055,4.60143,2470.81,2023-11-13T10:16:23Z
2023-11-13T08:17:00Z,42.805,6.029,13.3059,4.60150,2470.847,2023-11-13T10:19:27Z
2023-11-13T08:20:03Z,42.805,6.029,13.3048,4.60137,2470.833,2023-11-13T10:22:30Z
2023-11-13T08:23:06Z,42.805,6.029,13.3045,4.60141,2470.843,2023-11-13T10:25:33Z
2023-11-13T08:26:09Z,42.805,6.029,13.3046,4.60137,2470.857,2023-11-13T10:28:36Z
2023-11-13T08:29:12Z,42.805,6.029,13.3042,4.60135,2470.871,2023-11-13T10:31:39Z
2023-11-13T08:32:15Z,42.805,6.029,13.3043,4.60130,2470.88,2023-11-13T10:34:42Z
2023-11-13T08:35:18Z,42.805,6.029,13.3043,4.60132,2470.833,2023-11-13T10:37:45Z
2023-11-13T08:38:21Z,42.805,6.029,13.3041,4.60135,2470.857,2023-11-13T10:40:48Z
2023-11-13T08:41:24Z,42.805,6.029,13.3045,4.60140,2470.833,2023-11-13T10:43:51Z
2023-11-13T08:44:27Z,42.805,6.029,13.3043,4.60128,2470.871,2023-11-13T10:46:54Z
2023-11-13T08:47:30Z,42.805,6.029,13.3040,4.60127,2470.857,2023-11-13T10:49:57Z
2023-11-13T08:50:34Z,42.805,6.029,13.3042,4.60128,2470.857,2023-11-13T10:53:01Z
2023-11-13T08:53:37Z,42.805,6.029,13.3046,4.60127,2470.847,2023-11-13T10:56:04Z
2023-11-13T08:56:40Z,42.805,6.029,13.3047,4.60129,2470.857,2023-11-13T10:59:07Z
2023-11-13T08:59:43Z,42.805,6.029,13.3041,4.60127,2470.871,2023-11-13T11:02:10Z
2023-11-13T09:02:46Z,42.805,6.029,13.3046,4.60128,2470.833,2023-11-13T11:05:13Z
2023-11-13T09:05:49Z,42.805,6.029,13.3046,4.60131,2470.833,2023-11-13T11:08:16Z
2023-11-13T09:08:52Z,42.805,6.029,13.3043,4.60124,2470.88,2023-11-13T11:11:19Z
2023-11-13T09:11:55Z,42.805,6.029,13.3043,4.60127,2470.833,2023-11-13T11:14:22Z
2023-11-13T09:14:58Z,42.805,6.029,13.3045,4.60126,2470.847,2023-11-13T11:17:25Z
2023-11-13T09:18:01Z,42.805,6.029,13.3046,4.60126,2470.833,2023-11-13T11:20:28Z
2023-11-13T09:21:04Z,42.805,6.029,13.3043,4.60125,2470.857,2023-11-13T11:23:31Z
2023-11-13T09:24:08Z,42.805,6.029,13.3045,4.60125,2470.81,2023-11-13T11:26:35Z
2023-11-13T09:27:11Z,42.805,6.029,13.3044,4.60125,2470.871,2023-11-13T11:29:38Z
2023-11-13T09:30:14Z,42.805,6.029,13.3043,4.60126,2470.824,2023-11-13T11:32:41Z
2023-11-13T09:33:17Z,42.805,6.029,13.3044,4.60133,2470.824,2023-11-13T11:35:44Z
2023-11-13T09:36:20Z,42.805,6.029,13.3043,4.60130,2470.833,2023-11-13T11:38:47Z
2023-11-13T09:39:23Z,42.805,6.029,13.3042,4.60123,2470.833,2023-11-13T11:41:50Z
2023-11-13T09:42:26Z,42.805,6.029,13.3045,4.60125,2470.824,2023-11-13T11:44:53Z
2023-11-13T09:45:29Z,42.805,6.029,13.3044,4.60133,2470.833,2023-11-13T11:47:56Z
2023-11-13T09:48:32Z,42.805,6.029,13.3043,4.60121,2470.824,2023-11-13T11:50:59Z
2023-11-13T09:51:35Z,42.805,6.029,13.3048,4.60123,2470.833,2023-11-13T11:54:02Z
2023-11-13T09:54:38Z,42.805,6.029,13.3046,4.60123,2470.81,2023-11-13T11:57:05Z
2023-11-13T09:57:41Z,42.805,6.029,13.3047,4.60125,2470.787,2023-11-13T12:00:09Z
2023-11-13T10:00:45Z,42.805,6.029,13.3044,4.60127,2470.81,2023-11-13T12:03:12Z
2023-11-13T10:03:48Z,42.805,6.029,13.3045,4.60122,2470.787,2023-11-13T12:06:15Z
2023-11-13T10:06:51Z,42.805,6.029,13.3045,4.60122,2470.824,2023-11-13T12:09:18Z
2023-11-13T10:09:54Z,42.805,6.029,13.3044,4.60125,2470.824,2023-11-13T12:12:21Z
2023-11-13T10:12:57Z,42.805,6.029,13.3043,4.60122,2470.833,2023-11-13T12:15:24Z
2023-11-13T10:16:00Z,42.805,6.029,13.3046,4.60122,2470.787,2023-11-13T12:18:27Z
2023-11-13T10:19:03Z,42.805,6.029,13.3043,4.60122,2470.81,2023-11-13T12:21:30Z
2023-11-13T10:22:06Z,42.805,6.029,13.3047,4.60122,2470.81,2023-11-13T12:24:33Z
2023-11-13T10:25:09Z,42.805,6.029,13.3044,4.60125,2470.787,2023-11-13T12:27:36Z
2023-11-13T10:28:12Z,42.805,6.029,13.3047,4.60121,2470.8,2023-11-13T12:30:39Z
2023-11-13T10:31:15Z,42.805,6.029,13.3043,4.60121,2470.787,2023-11-13T12:33:42Z
2023-11-13T10:34:19Z,42.805,6.029,13.3046,4.60122,2470.81,2023-11-13T12:36:46Z
2023-11-13T10:37:22Z,42.805,6.029,13.3043,4.60122,2470.787,2023-11-13T12:39:49Z
2023-11-13T10:40:25Z,42.805,6.029,13.3039,4.60122,2470.81,2023-11-13T12:42:52Z
2023-11-13T10:43:28Z,42.805,6.029,13.3041,4.60123,2470.787,2023-11-13T12:45:55Z
2023-11-13T10:46:31Z,42.805,6.029,13.3044,4.60122,2470.81,2023-11-13T12:48:58Z
2023-11-13T10:49:34Z,42.805,6.029,13.3042,4.60122,2470.787,2023-11-13T12:52:01Z
2023-11-13T10:52:37Z,42.805,6.029,13.3043,4.60123,2470.787,2023-11-13T12:55:04Z
2023-11-13T10:55:40Z,42.805,6.029,13.3049,4.60122,2470.8,2023-11-13T12:58:07Z
2023-11-13T10:58:43Z,42.805,6.029,13.3044,4.60122,2470.763,2023-11-13T13:01:10Z
2023-11-13T11:01:46Z,42.805,6.029,13.3043,4.60123,2470.75,2023-11-13T13:04:13Z
2023-11-13T11:04:49Z,42.805,6.029,13.3045,4.60121,2470.787,2023-11-13T13:07:16Z
2023-11-13T11:07:53Z,42.805,6.029,13.3047,4.60121,2470.763,2023-11-13T13:10:20Z
2023-11-13T11:10:56Z,42.805,6.029,13.3046,4.60122,2470.8,2023-11-13T13:13:23Z
2023-11-13T11:13:59Z,42.805,6.029,13.3044,4.60122,2470.777,2023-11-13T13:16:26Z
2023-11-13T11:17:02Z,42.805,6.029,13.3044,4.60122,2470.787,2023-11-13T13:19:29Z
2023-11-13T11:20:05Z,42.805,6.029,13.3048,4.60121,2470.777,2023-11-13T13:22:32Z
2023-11-13T11:23:08Z,42.805,6.029,13.3043,4.60123,2470.763,2023-11-13T13:25:35Z
2023-11-13T11:26:11Z,42.805,6.029,13.3046,4.60121,2470.763,2023-11-13T13:28:38Z
2023-11-13T11:29:14Z,42.805,6.029,13.3044,4.60122,2470.777,2023-11-13T13:31:41Z
2023-11-13T11:32:16Z,42.805,6.029,13.3045,4.60121,2470.763,2023-11-13T13:34:43Z
2023-11-13T11:35:19Z,42.805,6.029,13.3043,4.60122,2470.74,2023-11-13T13:37:46Z
2023-11-13T11:38:22Z,42.805,6.029,13.3041,4.60122,2470.74,2023-11-13T13:40:49Z
2023-11-13T11:41:25Z,42.805,6.029,13.3048,4.60122,2470.754,2023-11-13T13:43:52Z
2023-11-13T11:44:28Z,42.805,6.029,13.3047,4.60121,2470.777,2023-11-13T13:46:55Z
2023-11-13T11:47:31Z,42.805,6.029,13.3045,4.60121,2470.73,2023-11-13T13:49:58Z
2023-11-13T11:50:34Z,42.805,6.029,13.3041,4.60122,2470.763,2023-11-13T13:53:01Z
2023-11-13T11:53:37Z,42.805,6.029,13.3046,4.60122,2470.726,2023-11-13T13:56:04Z
2023-11-13T11:56:40Z,42.805,6.029,13.3047,4.60121,2470.754,2023-11-13T13:59:07Z
2023-11-13T11:59:43Z,42.805,6.029,13.3044,4.60121,2470.73,2023-11-13T14:02:10Z
2023-11-13T12:02:46Z,42.805,6.029,13.3047,4.60122,2470.717,2023-11-13T14:05:13Z
2023-11-13T12:05:49Z,42.805,6.029,13.3042,4.60120,2470.717,2023-11-13T14:08:17Z
2023-11-13T12:08:53Z,42.805,6.029,13.3040,4.60121,2470.73,2023-11-13T14:11:20Z
2023-11-13T12:11:56Z,42.805,6.029,13.3048,4.60121,2470.693,2023-11-13T14:14:23Z
2023-11-13T12:14:59Z,42.805,6.029,13.3047,4.60121,2470.74,2023-11-13T14:17:26Z
2023-11-13T12:18:02Z,42.805,6.029,13.3046,4.60121,2470.74,2023-11-13T14:20:29Z
2023-11-13T12:21:05Z,42.805,6.029,13.3045,4.60121,2470.717,2023-11-13T14:23:32Z
2023-11-13T12:24:08Z,42.805,6.029,13.3046,4.60121,2470.717,2023-11-13T14:26:35Z
2023-11-13T12:27:11Z,42.805,6.029,13.3047,4.60119,2470.703,2023-11-13T14:29:38Z
2023-11-13T12:30:14Z,42.805,6.029,13.3046,4.60121,2470.73,2023-11-13T14:32:41Z
2023-11-13T12:33:17Z,42.805,6.029,13.3046,4.60125,2470.717,2023-11-13T14:35:44Z
2023-11-13T12:36:20Z,42.805,6.029,13.3043,4.60120,2470.717,2023-11-13T14:38:47Z
2023-11-13T12:39:23Z,42.805,6.029,13.3046,4.60121,2470.693,2023-11-13T14:41:50Z
2023-11-13T12:42:27Z,42.805,6.029,13.3043,4.60121,2470.717,2023-11-13T14:44:54Z
2023-11-13T12:45:30Z,42.805,6.029,13.3049,4.60120,2470.707,2023-11-13T14:47:57Z
2023-11-13T12:48:33Z,42.805,6.029,13.3046,4.60123,2470.73,2023-11-13T14:51:00Z
2023-11-13T12:51:36Z,42.805,6.029,13.3048,4.60123,2470.73,2023-11-13T14:54:03Z
2023-11-13T12:54:39Z,42.805,6.029,13.3050,4.60123,2470.754,2023-11-13T14:57:06Z
2023-11-13T12:57:42Z,42.805,6.029,13.3048,4.60122,2470.693,2023-11-13T15:00:09Z
2023-11-13T13:00:45Z,42.805,6.029,13.3045,4.60122,2470.73,2023-11-13T15:03:12Z
2023-11-13T13:03:48Z,42.805,6.029,13.3046,4.60125,2470.693,2023-11-13T15:06:15Z
2023-11-13T13:06:51Z,42.805,6.029,13.3042,4.60122,2470.754,2023-11-13T15:09:18Z
2023-11-13T13:09:54Z,42.805,6.029,13.3044,4.60122,2470.707,2023-11-13T15:12:21Z
2023-11-13T13:12:57Z,42.805,6.029,13.3043,4.60117,2470.67,2023-11-13T15:15:24Z
2023-11-13T13:16:00Z,42.805,6.029,13.3048,4.60117,2470.67,2023-11-13T15:18:28Z
2023-11-13T13:19:04Z,42.805,6.029,13.3042,4.60117,2470.693,2023-11-13T15:21:31Z
2023-11-13T13:22:07Z,42.805,6.029,13.3045,4.60117,2470.693,2023-11-13T15:24:34Z
2023-11-13T13:25:10Z,42.805,6.029,13.3046,4.60117,2470.67,2023-11-13T15:27:37Z
2023-11-13T13:28:13Z,42.805,6.029,13.3043,4.60118,2470.717,2023-11-13T15:30:40Z
2023-11-13T13:31:15Z,42.805,6.029,13.3043,4.60117,2470.693,2023-11-13T15:33:42Z
2023-11-13T13:34:18Z,42.805,6.029,13.3043,4.60117,2470.693,2023-11-13T15:36:45Z
2023-11-13T13:37:21Z,42.805,6.029,13.3042,4.60117,2470.717,2023-11-13T15:39:48Z
2023-11-13T13:40:24Z,42.805,6.029,13.3044,4.60117,2470.74,2023-11-13T15:42:51Z
2023-11-13T13:43:27Z,42.805,6.029,13.3046,4.60115,2470.684,2023-11-13T15:45:54Z
2023-11-13T13:46:30Z,42.805,6.029,13.3043,4.60117,2470.693,2023-11-13T15:48:57Z
2023-11-13T13:49:33Z,42.805,6.029,13.3047,4.60117,2470.726,2023-11-13T15:52:00Z
2023-11-13T13:52:36Z,42.805,6.029,13.3047,4.60116,2470.67,2023-11-13T15:55:03Z
2023-11-13T13:55:39Z,42.805,6.029,13.3043,4.60116,2470.67,2023-11-13T15:58:06Z
2023-11-13T13:58:42Z,42.805,6.029,13.3042,4.60116,2470.693,2023-11-13T16:01:09Z
2023-11-13T14:01:46Z,42.805,6.029,13.3039,4.60117,2470.693,2023-11-13T16:04:13Z
2023-11-13T14:04:49Z,42.805,6.029,13.3040,4.60117,2470.707,2023-11-13T16:07:16Z
2023-11-13T14:07:52Z,42.805,6.029,13.3042,4.60120,2470.717,2023-11-13T16:10:19Z
2023-11-13T14:10:55Z,42.805,6.029,13.3044,4.60119,2470.73,2023-11-13T16:13:22Z
2023-11-13T14:13:58Z,42.805,6.029,13.3045,4.60119,2470.703,2023-11-13T16:16:25Z
2023-11-13T14:17:01Z,42.805,6.029,13.3044,4.60117,2470.693,2023-11-13T16:19:28Z
2023-11-13T14:20:04Z,42.805,6.029,13.3044,4.60118,2470.693,2023-11-13T16:22:31Z
2023-11-13T14:23:07Z,42.805,6.029,13.3043,4.60119,2470.717,2023-11-13T16:25:34Z
2023-11-13T14:26:10Z,42.805,6.029,13.3047,4.60117,2470.656,2023-11-13T16:28:37Z
2023-11-13T14:29:13Z,42.805,6.029,13.3041,4.60116,2470.717,2023-11-13T16:31:40Z
2023-11-13T14:32:16Z,42.805,6.029,13.3049,4.60117,2470.717,2023-11-13T16:34:43Z
2023-11-13T14:35:20Z,42.805,6.029,13.3043,4.60118,2470.707,2023-11-13T16:37:47Z
2023-11-13T14:38:23Z,42.805,6.029,13.3043,4.60117,2470.707,2023-11-13T16:40:50Z
2023-11-13T14:41:26Z,42.805,6.029,13.3042,4.60119,2470.707,2023-11-13T16:43:53Z
2023-11-13T14:44:29Z,42.805,6.029,13.3048,4.60118,2470.693,2023-11-13T16:46:56Z
2023-11-13T14:47:32Z,42.805,6.029,13.3047,4.60117,2470.693,2023-11-13T16:49:59Z
2023-11-13T14:50:35Z,42.805,6.029,13.3048,4.60117,2470.73,2023-11-13T16:53:02Z
2023-11-13T14:53:38Z,42.805,6.029,13.3043,4.60120,2470.74,2023-11-13T16:56:05Z
2023-11-13T14:56:41Z,42.805,6.029,13.3045,4.60119,2470.74,2023-11-13T16:59:08Z
2023-11-13T14:59:44Z,42.805,6.029,13.3043,4.60119,2470.717,2023-11-13T17:02:11Z
2023-11-13T15:02:47Z,42.805,6.029,13.3046,4.60123,2470.754,2023-11-13T17:05:14Z